User: anonymous   Login
Location: Unspecified
(0.0000°N, 0.0000°E)
Time: 19:00:04
(UTC+00:00)
Language:

GSAT 7 - Orbit

View from above orbital plane
View from above orbital plane
View from above satellite
View from above satellite

Ground track
Ground track

The orbit data is extracted from the following two-line orbital elements,

1 39234U 13044B   16044.39726181 -.00000095  00000-0  00000+0 0  9999
2 39234   0.0789 267.9161 0011553  18.8668  73.0623  1.00271526  9038
Epoch (UTC): 13 February 2016 09:32:03
Eccentricity: 0.0011553
inclination: 0.0789°
perigee height: 35737 km
apogee height: 35835 km
right ascension of ascending node: 267.9161°
argument of perigee: 18.8668°
revolutions per day: 1.00271526
mean anomaly at epoch: 73.0623°
orbit number at epoch: 903

The dashed part of the orbit path shows where the satellite is in the earth's shadow,  

DLR